sat.trackr.live / text

‹ back to catalog

GEESAT-2 01

NORAD 58905 · 2024-023A

PAYLOAD ACTIVE UNKNOWN

§ Identity

Operator
Country
PRC
Launch date
2024-02-02
Launch site
XICLF
Launch vehicle
Mass (kg)
RCS (m²)

External: N2YO · Heavens-Above · Gunter

§ Orbital elements

Epoch: 2026-05-25T04:02:27.860064Z

Period
97.09 min
Inclination
49.9945°
Eccentricity
0.0005596
Mean motion
14.83161188 rev/d
Perigee alt
615.4 km
Apogee alt
623.3 km
Semi-major
6,997.5 km
B*
2.0427e-4
RAAN
100.6988°
Arg perigee
303.1101°
Mean anomaly
56.9300°
Rev number
12,549

§ Raw data

GEESAT-2 011 58905U 24023A   26145.16837801  .00001459  00000+0  20427-3 0  99962 58905  49.9945 100.6988 0005596 303.1101  56.9300 14.83161188125490

JSON: /api/v1/satellites/58905 · /tle

For live sub-satellite position, see the globe view (requires WebGL).

§ Visibility from observer

Set your observer location to see the next 7 days of passes ≥ 10°. The values pass through the URL so the page stays shareable.

No JS? Fill the form by hand. The geolocation button needs JavaScript.